Location: Barruelo
(41.2448°N, 3.8231°W)
Time: 22:59:44
(UTC+00:00)

Cosmos 2237 - Pass Details

Date: 11 December 2025
Orbit: 848 x 854 km, 70.8° (Epoch: 14 January)

Event Time Altitude Azimuth Distance (km) Brightness Sun altitude
Rises 19:27:22 0° 209° (SSW) 3,409 7.8 -29.4°
Reaches altitude 10° 19:29:49 10° 212° (SSW) 2,477 7.0 -29.9°
Enters shadow 19:35:10 68° 272° (W) 921 4.4 -30.9°
